Weather History for Burlington, NC

Change the Weather History Date:

Wednesday, January 22, 2014

  Actual Average Record
Temperature  
Mean Temperature 24 °F -  
Max Temperature 30 °F 47 °F - (-1)
Min Temperature 19 °F 28 °F - (-1)
Degree Days  
Heating Degree Days 40    
Moisture  
Dew Point 7 °F    
Average Humidity 50    
Maximum Humidity 72    
Minimum Humidity 31    
Precipitation  
Precipitation 0.00 in - - ()
Sea Level Pressure  
Sea Level Pressure 29.99 in    
Wind  
Wind Speed 9 mph (NW)    
Max Wind Speed 16 mph    
Max Gust Speed 22 mph    
Visibility 10 miles    
Events      
Averages and records for this station are not official NWS values.
T = Trace of Precipitation, MM = Missing Value Source: NWS Daily Summary

Daily Weather History Graph

Daily Weather History Graph

Search for Another Location

Airport:

Trip Planner

Search our weather history database for the weather conditions in past years. The results will help you decide how hot, cold, wet, or windy it might be!

Date:

Astronomy

Jan. 22, 2014 Rise Set
Actual Time 7:25 AM EST 5:34 PM EST
Civil Twilight 6:57 AM EST 6:01 PM EST
Nautical Twilight 6:26 AM EST 6:33 PM EST
Astronomical Twilight 5:55 AM EST 7:03 PM EST
Moon 11:51 PM EST (1/22) 10:37 AM EST (1/22)
Length of Visible Light 11h 04m
Length of Day
10h 09m
Waning Gibbous, 65% of the Moon is Illuminated
Jan 22
Waning Gibbous
Jan 24
Last Quarter
Jan 30
New
Feb 6
First Quarter
Feb 14
Full

Hourly Weather History & Observations

Time (EST) Temp. Windchill Dew Point Humidity Pressure Visibility Wind Dir Wind Speed Gust Speed Precip Events Conditions
12:54 AM 27.0 °F 16.1 °F 19.0 °F 72% 29.84 in 10.0 mi NW 12.7 mph 20.7 mph 0.00 in   Overcast
1:47 AM 25.0 °F 12.2 °F 12.9 °F 60% 29.85 in 10.0 mi NW 16.1 mph 21.9 mph N/A   Overcast
1:54 AM 24.1 °F 13.1 °F 12.9 °F 62% 29.87 in 10.0 mi NW 11.5 mph 21.9 mph N/A   Overcast
2:54 AM 23.0 °F 13.1 °F 12.0 °F 63% 29.89 in 10.0 mi NW 9.2 mph - N/A   Mostly Cloudy
3:54 AM 21.9 °F 9.8 °F 10.0 °F 60% 29.91 in 10.0 mi NW 12.7 mph 18.4 mph N/A   Clear
4:54 AM 21.0 °F 13.4 °F 9.0 °F 60% 29.93 in 10.0 mi NW 5.8 mph - N/A   Clear
5:54 AM 21.0 °F 12.4 °F 8.1 °F 57% 29.94 in 10.0 mi NNW 6.9 mph - N/A   Clear
6:54 AM 19.9 °F 9.3 °F 6.1 °F 55% 29.97 in 10.0 mi NW 9.2 mph - N/A   Clear
7:54 AM 19.0 °F 10.0 °F 7.0 °F 59% 29.99 in 10.0 mi NW 6.9 mph - N/A   Clear
8:54 AM 21.9 °F 10.4 °F 7.0 °F 53% 30.01 in 10.0 mi NW 11.5 mph - N/A   Clear
9:54 AM 23.0 °F 11.1 °F 6.1 °F 48% 30.04 in 10.0 mi WNW 12.7 mph - N/A   Clear
10:54 AM 24.1 °F 12.0 °F 3.9 °F 42% 30.05 in 10.0 mi NW 13.8 mph - N/A   Clear
11:54 AM 25.0 °F 15.5 °F 5.0 °F 43% 30.04 in 10.0 mi West 9.2 mph - N/A   Clear
12:54 PM 26.1 °F 15.0 °F 5.0 °F 41% 30.01 in 10.0 mi West 12.7 mph - N/A   Clear
1:54 PM 28.0 °F 18.6 °F 3.9 °F 36% 29.99 in 10.0 mi WNW 10.4 mph - N/A   Clear
2:54 PM 30.0 °F 21.7 °F 3.0 °F 32% 29.99 in 10.0 mi NW 9.2 mph - N/A   Clear
3:54 PM 28.9 °F 23.9 °F 1.9 °F 32% 30.01 in 10.0 mi Variable 4.6 mph - N/A   Clear
4:54 PM 28.0 °F 22.8 °F 1.0 °F 31% 30.02 in 10.0 mi WNW 4.6 mph - N/A   Clear
5:54 PM 26.1 °F - 1.9 °F 35% 30.03 in 10.0 mi Calm Calm - N/A   Clear
6:54 PM 24.1 °F 19.7 °F 1.9 °F 38% 30.04 in 10.0 mi SSE 3.5 mph - N/A   Clear
7:54 PM 19.9 °F - 5.0 °F 52% 30.06 in 10.0 mi Calm Calm - N/A   Clear
8:54 PM 19.0 °F - 8.1 °F 62% 30.06 in 10.0 mi Calm Calm - N/A   Scattered Clouds
9:54 PM 21.0 °F - 9.0 °F 60% 30.07 in 10.0 mi Calm Calm - N/A   Overcast
10:54 PM 23.0 °F - 9.0 °F 55% 30.09 in 10.0 mi Calm Calm - N/A   Overcast
11:54 PM 23.0 °F - 8.1 °F 53% 30.09 in 10.0 mi Calm Calm - N/A   Overcast